Regional Weather Roundup
Issued by NWS

Home | Current Version | Previous Version | Text Only | Print | Product List | Glossary Off
Versions: 1 2 3 4 5 6 7 8 9 10 11 12 13 14 15 16 17 18 19 20 21 22 23 24 25 26 27

000
ASUS45 KBOU 221907
RWRCO

WEATHER ROUNDUP FOR COLORADO
NATIONAL WEATHER SERVICE DENVER/BOULDER CO
100 PM MDT FRI JUL 22 2016

NOTE: "FAIR" INDICATES FEW OR NO CLOUDS BELOW 12000 FEET WITH NO
SIGNIFICANT WEATHER AND/OR OBSTRUCTIONS TO VISIBILITY.

COZ001>005-013-030-031-222000-
...NORTHWEST COLORADO...

CITY           SKY/WX    TMP DP  RH WIND       PRES   REMARKS
CRAIG          FAIR      87  42  20 W7        30.33F
HAYDEN         FAIR      82  45  26 W6G16     30.36F
MEEKER         FAIR      84  48  28 SW8       30.34F
MOUNT WERNER   NOT AVBL
STEAMBOAT SPGS FAIR      82  49  31 SW6       30.39F
WALDEN         FAIR      77  43  29 SW9       30.49F
$$

COZ006>008-011-222000-
...WEST CENTRAL VALLEYS...

CITY           SKY/WX    TMP DP  RH WIND       PRES   REMARKS
GRAND JUNCTION FAIR      90  50  25 VRB5      30.23F
MONTROSE       FAIR      85  52  32 VRB5      30.33F
EAGLE          SUNNY     84  48  28 W6        30.38F
RIFLE          FAIR      87  49  26 VRB6      30.28F
DELTA          FAIR      91  50  24 SE5       30.27F
NUCLA          FAIR      86  48  26 SE5       30.38F
$$

COZ017>023-064>068-222000-
...SOUTHWEST COLORADO...

CITY           SKY/WX    TMP DP  RH WIND       PRES   REMARKS
DURANGO        FAIR      83  47  28 VRB7      30.39F
CORTEZ         FAIR      88  49  25 VRB5      30.34F
PAGOSA SPRINGS FAIR      81  41  24 CALM      30.48F
TELLURIDE      CLOUDY    68  48  48 CALM      30.63S
WOLF CREEK PAS FAIR      61  41  48 SW16G22   30.84F
$$

COZ009-010-012-014-032>034-037-058>063-222000-
...CENTRAL COLORADO...

CITY           SKY/WX    TMP DP  RH WIND       PRES   REMARKS
ASPEN          FAIR      80  46  30 N8G17     30.46F
BUENA VISTA    FAIR      79  41  26 E3        30.46F
COPPER MTN     PTSUNNY   61  41  48 NW13G22   30.82F
BERTHOUD PASS  PTSUNNY   54  37  54 N12G24    30.85S
COTTONWOOD PAS PTSUNNY   72  46  40 CALM      30.64S
GUNNISON       FAIR      79  46  31 SE6       30.48F THUNDER
KREMMLING      FAIR      75  54  46 SE6       30.46F
LEADVILLE      FAIR      71  36  27 NW13G18   30.63F
MONARCH PASS   FAIR      63  41  45 MISG      30.92S
SALIDA         FAIR      83  43  24 SE6       30.48F
SUNLIGHT       FAIR      64  46  52 CALM      30.75F
WILKERSON PASS FAIR      72  43  35 W3        30.77S
$$

COZ069>075-222000-
...SAN LUIS VALLEY/SANGRE DE CRISTO MOUNTAINS...

CITY           SKY/WX    TMP DP  RH WIND       PRES   REMARKS
ALAMOSA        FAIR      82  43  25 SE7       30.44F
LA VETA PASS   FAIR      75  39  27 S6        30.67S
SAGUACHE       CLOUDY    73  52  46 SW3       30.48S
$$

COZ035-036-038>040-222000-
...NORTHERN COLORADO FRONT RANGE...

CITY           SKY/WX    TMP DP  RH WIND       PRES   REMARKS
DENVER INTL AP FAIR      92  45  19 NW3       30.22F
DMNS CITY PARK   N/A     93  46  19 SE6       30.20F
AURORA         MOSUNNY   91  46  20 VRB1      30.24F
FRONT RANGE AP PTSUNNY   93  45  18 S7G18     30.24F
ERIE MUNI ARPT FAIR      94  41  15 SE5       30.19F
BOULDER MUN AP FAIR      93  46  20 SE5       30.20F
CENTENNIAL     FAIR      90  42  18 SE7       30.25F
BROOMFIELD     MOSUNNY   90  45  20 CALM      30.26
LONGMONT       FAIR      96  48  19 E7        30.20F
$$

COZ041-046-047-076>085-087-088-222000-
...PIKES PEAK/PALMER DIVIDE AND SOUTHERN FOOTHILLS...

CITY           SKY/WX    TMP DP  RH WIND       PRES   REMARKS
COLO. SPRINGS  FAIR      91  44  19 E3        30.29F
A. F. ACADEMY  MOSUNNY   89  46  22 S12       30.30F
SCHRIEVER AFB  NOT AVBL
ELLICOTT       FAIR     N/A N/A N/A CALM      30.28F
FALCON         FAIR      88  43  20 CALM      30.36F
FORT CARSON    FAIR      93  44  18 S12G17    30.23F
LIMON          FAIR      93  46  19 VRB7      30.22F
MONUMENT HILL  FAIR      82  46  28 SW7       30.37F
TRINIDAD       NOT AVBL
$$

COZ042>045-048>051-090-091-222000-
...NORTHEAST COLORADO...

CITY           SKY/WX    TMP DP  RH WIND       PRES   REMARKS
GREELEY ARPT   FAIR      95  52  23 S3        30.17F
AKRON          FAIR      92  57  30 E8        30.17F
BURLINGTON     FAIR      94  53  25 NE6       30.14F
WRAY           NOT AVBL
STERLING       FAIR      95  61  31 S8        30.11F
HOLYOKE        FAIR      99  63  30 W8        30.12S
FORT MORGAN    FAIR      94  53  25 E6        30.17F
$$

COZ086-089-092>099-222000-
...SOUTHEAST COLORADO...

CITY           SKY/WX    TMP DP  RH WIND       PRES   REMARKS
PUEBLO         FAIR      99  47  17 S9        30.15F
LA JUNTA       FAIR      96  50  20 S5        30.12F
LAMAR          FAIR      98  56  24 CALM      30.07F
SPRINGFIELD      N/A     99  52  20 SE12G18   30.13F
$$




USA.gov is the U.S. government's official web portal to all federal, state and local government web resources and services.